Location: Raven Hill Discovery Center
(45.1336°N, 85.0553°W)
Time: 03:07:20
(UTC-04:00)

Daily predictions for brighter satellites

Satellite Brightness Start Highest point End
(mag) Time Altitude Azimuth Time Altitude Azimuth Time Altitude Azimuth
SL-16 R/B 3.9 03:17:53 34° NE 03:17:53 34° NE 03:22:46 10° N
CZ-4C R/B 3.9 03:30:43 10° NNW 03:40:27 37° ESE 03:45:10 10° SE
Resurs 1-4 Rocket 3.9 03:39:41 10° NNE 03:42:58 27° ENE 03:42:58 27° ENE
COSMOS 2428 4.4 03:47:41 10° NNW 03:50:19 26° N 03:50:19 26° N
BREEZE-M DEB (TANK) 4.4 03:58:26 81° NNW 03:58:28 81° NNW 04:19:40 10° ENE
ATLAS 2AS CENTAUR R/B 3.0 04:00:18 76° N 04:00:18 76° N 04:07:51 10° NE
Cosmos 2237 Rocket 4.4 03:58:41 10° N 04:03:06 23° NE 04:07:28 10° E
Gbstr 26 Del rocket 4.4 04:08:38 74° NNE 04:08:38 74° NNE 04:16:36 10° ESE
Okean O Rocket 4.1 04:13:05 10° NE 04:15:57 17° E 04:16:41 16° ESE
ATLAS 5 CENTAUR R/B 3.9 04:11:32 10° NNW 04:16:45 33° NE 04:22:22 10° E
Cosmos 2219 3.9 04:18:02 49° ENE 04:18:02 49° ENE 04:22:39 10° NNE
Cosmos 2344 4.1 04:26:23 44° SSE 04:28:25 54° ESE 04:36:46 10° NE
USA 238 DEB 4.3 04:25:27 10° NW 04:35:03 43° SSE 04:39:32 10° SSE
USA 238 4.2 04:25:33 10° NW 04:34:55 46° SSE 04:39:39 10° SSE
Cosmos 1535 Rocket 4.4 04:31:13 10° N 04:37:24 83° E 04:37:43 79° SE
Cosmos 2227 Rocket 4.1 04:35:19 15° SE 04:38:22 24° ESE 04:42:47 10° NE
Nadezhda 3 Rocket 4.0 04:39:22 70° NW 04:39:22 70° NW 04:45:09 10° N
Cosmos 2219 Rocket 2.6 04:39:30 10° NNW 04:45:10 62° ENE 04:50:47 10° SE
Cosmos 2297 Rocket 4.4 04:44:11 10° SSE 04:48:13 21° E 04:52:16 10° NE
CZ-2D R/B 2.3 04:46:24 10° N 04:50:46 59° NNW 04:50:46 59° NNW
Meteor 2-16 Rocket 4.3 04:54:15 10° NNW 05:00:24 75° W 05:01:22 62° SSW
SL-16 R/B 3.5 05:02:59 32° NW 05:02:59 32° NW 05:06:38 10° NNW
Lacrosse 5 rocket 1.9 05:01:27 60° NNE 05:01:27 60° NNE 05:05:16 10° NE
ARIANE 5 R/B 3.3 04:56:48 10° N 05:00:28 39° NNW 05:00:28 39° NNW
NOSS 3-2 (C) 4.2 04:57:01 10° NW 05:04:25 71° NE 05:12:26 10° SE
CENTAUR R/B 4.4 05:02:31 10° NNW 05:09:21 35° NE 05:16:42 10° E
ERS-2 4.4 05:13:51 10° N 05:14:53 17° NNW 05:14:53 17° NNW
CZ-2D R/B 4.0 05:13:27 10° N 05:16:28 46° NNW 05:16:28 46° NNW
Cosmos 2333 Rocket 2.2 05:11:59 10° NNW 05:17:45 86° ENE 05:23:26 10° SSE
ADEOS Rocket 4.1 05:12:06 10° NNE 05:19:12 50° E 05:25:35 10° S
Cosmos 1680 Rocket 3.9 05:13:58 10° NNW 05:19:15 65° ENE 05:24:28 10° SSE
EXPRESS MD2 3.8 05:22:10 43° NNE 05:22:10 43° NNE 05:26:27 10° E
Lacrosse 5 3.0 05:20:27 26° S 05:22:29 37° SE 05:27:07 10° ENE
Resurs 1-4 Rocket 2.7 05:19:25 10° N 05:24:02 37° WNW 05:24:02 37° WNW
Cosmos 1821 Rocket 4.2 05:18:37 10° NNW 05:24:40 47° W 05:25:37 44° WSW
IRS-1C Rocket 4.1 05:19:37 10° NNE 05:24:57 83° ESE 05:27:44 29° S
CZ-4C R/B 3.2 05:26:05 39° WSW 05:26:06 39° WSW 05:33:12 10° S
Cosmos 1605 Rocket 3.8 05:23:37 10° NNW 05:29:44 73° W 05:35:54 10° S
NOSS 3-4 (A) 3.8 05:26:20 26° SSW 05:29:59 65° ESE 05:36:28 10° NE
NOSS 3-4 (C) 3.8 05:26:24 26° SSW 05:30:05 64° ESE 05:36:34 10° NE
Cosmos 1934 Rocket 4.1 05:24:29 10° NNW 05:30:33 51° W 05:33:06 32° SSW
BREEZE-M DEB (TANK) 4.4 05:16:16 10° WNW 05:39:21 79° NNE 05:44:17 10° ESE
NOSS 0 Rocket 3.9 05:35:29 10° NNW 05:41:37 61° WSW 05:47:43 10° S
CZ-4B R/B 3.1 05:37:46 10° NNE 05:43:11 88° WNW 05:47:54 14° SSW
Thor Agena Rocket 3.6 05:38:25 10° SSE 05:43:42 87° ENE 05:49:03 10° NNW
Cosmos 2084 3.1 05:44:02 59° W 05:44:32 69° NW 05:48:21 10° NE
Meteor 2-4 Rocket 4.3 05:40:11 10° S 05:45:53 62° E 05:51:44 10° NNE
Cosmos 2237 Rocket 2.1 05:42:06 10° NNW 05:47:43 69° WSW 05:53:17 10° SSE
Cosmos 1666 3.2 05:45:11 10° N 05:49:02 60° E 05:52:50 10° SSE
Cosmos 292 Rocket 4.3 05:44:27 10° NNW 05:49:19 63° ENE 05:54:08 10° SSE
MOZ.5/SAFIR/RUBIN 5/SL-8 4.2 05:49:20 37° WSW 05:49:41 38° W 05:54:08 10° NNW
CZ-2C R/B 3.9 05:46:59 21° SSW 05:49:43 47° W 05:54:12 10° NNW
RESURS DK-1 3.1 05:46:43 16° S 05:49:47 50° ESE 05:53:48 10° NE
ATLAS 2AS CENTAUR R/B 4.1 05:47:44 20° WNW 05:51:55 31° NNW 05:59:00 10° NNE
Meteor 1-13 Rocket 4.2 05:47:17 16° SSW 05:52:01 69° WNW 05:57:46 10° N
Okean O Rocket 1.8 05:48:21 10° N 05:52:38 51° WNW 05:54:08 34° SW
Tiangong 1 2.3 05:54:38 27° S 05:55:00 28° SSE 05:57:40 10° E
Cosmos 2061 Rocket 4.3 05:49:54 10° N 05:56:13 74° E 06:02:33 10° SSE
Cosmos 968 Rocket 4.4 05:56:30 27° W 05:57:33 29° WNW 06:02:02 10° N
Cosmos 1980 3.8 05:55:21 10° NW 06:00:50 50° WSW 06:06:17 10° S
USA 116 4.4 05:55:39 10° SSE 06:00:50 82° ENE 06:05:35 10° N
Cosmos 2219 4.3 05:59:59 23° WNW 06:01:39 27° NW 06:06:23 10° N
ATLAS 5 CENTAUR R/B 2.4 05:55:57 10° NW 06:01:53 65° WSW 06:08:17 10° SSE
Cosmos 923 Rocket 4.3 05:57:22 10° NNW 06:02:26 43° WSW 06:07:26 10° S
BREEZE M DEB (TANK) 2.8 06:01:28 33° W 06:02:53 70° NNW 06:11:25 10° ENE
Cosmos 1025 Rocket 2.9 05:59:15 14° SSW 06:02:56 69° W 06:07:16 10° N
Cosmos 1802 Rocket 4.2 05:57:14 10° N 06:03:26 74° E 06:09:33 10° SSE
Cosmos 2100 Rocket 4.0 05:59:35 10° N 06:05:49 86° W 06:12:07 10° S
SL-16 R/B 2.4 06:00:07 10° NNW 06:05:50 77° ENE 06:11:31 10° SSE
Cosmos 1346 Rocket 2.8 06:03:18 10° S 06:07:15 83° E 06:11:16 10° NNE
Cosmos 1606 Rocket 3.5 06:04:03 10° NNW 06:08:25 64° W 06:12:42 10° S
Meteor 2-9 Rocket 4.2 06:03:47 10° NNW 06:09:24 84° W 06:15:08 10° S
Cosmos 724 4.5 06:05:29 10° NNW 06:11:44 84° NE 06:17:59 10° SE
Cosmos 1743 3.3 06:08:19 10° NNW 06:11:46 32° W 06:14:09 17° SSW
USA 129 2.6 06:11:22 10° SSE 06:13:19 45° ENE 06:15:08 10° N
NOSS 3-2 (A) 4.3 06:11:37 10° NW 06:18:36 42° WSW 06:26:02 10° S
Cosmos 1726 Rocket 3.6 06:15:56 10° NNW 06:20:16 56° W 06:24:31 10° S
CZ-4B R/B 3.7 06:16:50 10° N 06:20:46 35° WNW 06:23:54 15° SW
SeaSat 1 4.1 06:16:20 10° ESE 06:20:48 36° NE 06:25:19 10° NNW
Meteor PRIRODA 3.6 06:17:19 10° NNE 06:21:05 88° WNW 06:24:48 10° SSW
COS B Rocket 2.3 06:21:09 34° SW 06:21:40 40° W 06:23:58 10° NNW
Cosmos 2227 Rocket 2.3 06:17:11 14° SW 06:22:00 56° WNW 06:27:36 10° NNE
ADEOS II 2.0 06:20:09 10° N 06:25:25 73° WNW 06:30:39 10° SSW
Cosmos 1898 Rocket 3.8 06:23:11 10° SSW 06:28:29 74° ESE 06:33:48 10° NNE
Cosmos 2219 Rocket 3.3 06:24:27 10° NW 06:28:36 21° W 06:32:45 10° SSW
CZ-2D R/B 4.0 06:29:11 10° NW 06:30:47 11° NW 06:32:06 10° WNW
Cosmos 1892 Rocket 3.7 06:27:01 10° SSW 06:31:26 56° WNW 06:35:51 10° N
Cosmos 2297 Rocket 2.2 06:26:08 10° SW 06:31:44 63° WNW 06:37:22 10° NNE
SKYMED 2 4.4 06:30:01 10° SSE 06:34:14 55° ENE 06:38:30 10° N
Meteor 1-15 Rocket 4.3 06:32:27 10° NNW 06:37:54 57° W 06:43:21 10° S
NOAA 6 4.5 06:32:53 10° NNE 06:38:05 69° ESE 06:43:15 10° S
Okean 2 3.7 06:35:13 10° SSW 06:39:14 47° WNW 06:43:16 10° N
PSLV R/B 4.0 06:35:41 10° N 06:39:46 40° WNW 06:43:47 10° SW
Lacrosse 5 rocket 3.1 06:37:12 11° WNW 06:40:42 23° NNW 06:44:15 10° NE
Cosmos 2344 4.4 06:36:25 13° WSW 06:43:14 43° NNW 06:52:13 10° NE
COBE Rocket 3.8 06:38:55 10° N 06:43:46 78° WNW 06:48:28 10° SSW
Cosmos 2016 Rocket 4.0 06:38:01 10° NNW 06:44:20 67° W 06:50:33 10° S
MOS 1 Rocket 3.3 06:39:40 10° N 06:44:22 76° WNW 06:49:20 10° SSW
Cosmos 1937 Rocket 3.8 06:40:32 10° SSW 06:45:43 75° ESE 06:51:01 10° NNE
Feng Yun 1-1 Rocket 4.4 06:42:01 10° N 06:47:30 59° WNW 06:53:07 10° SSW
Meteor 1-31 Rocket 2.7 06:43:54 10° N 06:47:46 67° WNW 06:51:40 10° SSW
Cosmos 2173 Rocket 4.3 06:44:39 10° NNW 06:50:21 43° W 06:56:04 10° SSW
SL-08 R/B 4.5 06:44:37 10° NNW 06:50:48 71° W 06:57:03 10° S
Okean-O 3.2 06:48:04 10° N 06:52:11 38° WNW 06:56:17 10° SW
Cosmos 1812 Rocket 3.9 06:48:03 10° N 06:52:30 74° E 06:56:56 10° SSE
Cosmos 1603 4.1 06:47:06 10° NNW 06:52:51 71° ENE 06:58:31 10° SSE
Cosmos 2228 3.5 06:54:34 10° NNW 06:58:42 40° W 07:02:47 10° SSW
CENTAUR R/B 3.1 06:53:04 10° NW 07:00:52 80° SW 07:09:11 10° SSE
Cosmos 2333 Rocket 3.7 06:58:11 10° WNW 07:01:12 15° W 07:04:10 10° SW
Cosmos 2123 Rocket 4.0 06:55:51 10° SSW 07:02:01 78° W 07:08:14 10° N
ADEOS Rocket 4.0 06:57:51 10° N 07:04:24 36° WNW 07:10:25 10° SW
CZ-4 R/B 4.2 07:01:35 10° NE 07:04:50 24° E 07:08:05 10° SSE
Lacrosse 5 2.3 07:00:26 10° WSW 07:05:21 50° NNW 07:10:18 10° NE
Cosmos 2058 Rocket 4.1 07:02:09 10° NW 07:05:42 25° W 07:09:14 10° SW
